GW2126 Weather Reports


Display with metric or nautical units.
time (UTC)temp
F
wind
direction
speed
MPH
gust
MPH
rain 1hr
in
rain 24hr
in
rain mn
in
humidity
%
barometer
mb
20260502123028 38 294 1.0 4.0 0.00 0.00 0.00 73 1018.8
20260502121542 36 342 2.0 5.0 0.00 0.00 0.00 75 1018.9
20260502114529 34 288 0.0 3.0 0.00 0.00 0.00 78 1018.9
20260502113029 33 0 0.0 1.0 0.00 0.00 0.00 81 1018.7
20260502111526 32 0 0.0 0.0 0.00 0.00 0.00 82 1018.5
20260502110028 31 0 0.0 0.0 0.00 0.00 0.00 83 1018.5
20260502104541 31 0 0.0 0.0 0.00 0.00 0.00 81 1018.3
20260502103029 31 0 0.0 0.0 0.00 0.00 0.00 81 1018.2
20260502101530 31 0 0.0 1.0 0.00 0.00 0.00 80 1018.3
20260502091530 32 0 0.0 0.0 0.00 0.00 0.00 79 1018.0
20260502070028 36 0 0.0 0.0 0.00 0.00 0.00 70 1017.7
20260502064527 36 0 0.0 1.0 0.00 0.00 0.00 69 1017.8
20260502063029 37 0 0.0 2.0 0.00 0.00 0.00 67 1017.8
20260502061528 38 0 0.0 0.0 0.00 0.00 0.00 64 1017.8
20260502060028 38 0 0.0 1.0 0.00 0.00 0.00 63 1017.8
20260502054530 38 0 0.0 2.0 0.00 0.00 0.00 61 1017.8
20260502053027 39 0 0.0 3.0 0.00 0.00 0.00 60 1017.8
20260502051547 39 0 0.0 2.0 0.00 0.00 0.00 60 1017.6
20260502050026 39 0 0.0 2.0 0.00 0.00 0.00 59 1017.6
20260502044528 39 0 0.0 2.0 0.00 0.00 0.00 58 1017.6
20260502043028 39 306 0.0 3.0 0.00 0.00 0.00 58 1017.5
20260502041529 39 0 0.0 2.0 0.00 0.00 0.00 58 1017.3
20260502040027 40 0 1.0 4.0 0.00 0.00 0.00 56 1017.4
20260502034538 40 22 0.0 4.0 0.00 0.00 0.00 55 1017.4
20260502033038 40 0 0.0 5.0 0.00 0.00 0.00 54 1017.3
20260502031528 40 44 1.0 3.0 0.00 0.00 0.00 55 1017.2
20260502030029 40 5 1.0 5.0 0.00 0.00 0.00 53 1017.1
20260502024531 41 0 0.0 4.0 0.00 0.00 0.00 53 1017.2
20260502023029 41 347 1.0 4.0 0.00 0.00 0.00 53 1017.2
20260502021526 41 351 2.0 7.0 0.00 0.00 0.00 52 1017.1
20260502020028 41 0 0.0 5.0 0.00 0.00 0.00 56 1017.0
20260502014532 41 0 0.0 2.0 0.00 0.00 0.00 57 1016.9
20260502013028 41 5 0.0 2.0 0.00 0.00 0.00 56 1016.8
20260502011530 41 0 0.0 4.0 0.00 0.00 0.00 53 1016.6
20260502010027 42 360 1.0 4.0 0.00 0.00 0.00 52 1016.4
20260502004528 42 296 1.0 3.0 0.00 0.00 0.00 53 1016.4
20260502003027 42 11 0.0 5.0 0.00 0.00 0.00 51 1016.2
20260502001528 43 0 1.0 5.0 0.00 0.00 0.00 51 1016.1
20260502000029 43 0 1.0 4.0 0.00 0.00 0.00 49 1015.9
20260501234531 43 310 1.0 7.0 0.00 0.00 0.00 50 1015.7
20260501233028 43 25 2.0 9.0 0.00 0.00 0.00 49 1015.7
20260501231538 44 342 1.0 7.0 0.00 0.00 0.00 50 1015.6
20260501230026 44 58 2.0 11.0 0.00 0.00 0.00 48 1015.5
20260501224526 45 32 1.0 5.0 0.00 0.00 0.00 47 1015.4
20260501223028 45 311 1.0 6.0 0.00 0.00 0.00 46 1015.4
20260501221531 45 57 0.0 5.0 0.00 0.00 0.00 47 1015.3
20260501220028 46 333 1.0 8.0 0.00 0.00 0.00 46 1015.2
20260501214538 46 0 0.0 4.0 0.00 0.00 0.00 48 1015.2
20260501213028 46 323 2.0 5.0 0.00 0.00 0.00 48 1015.0
20260501211526 46 267 1.0 6.0 0.00 0.00 0.00 47 1014.9
20260501210028 46 0 0.0 4.0 0.00 0.00 0.00 47 1014.9
20260501204528 46 350 2.0 5.0 0.00 0.00 0.00 44 1015.0
20260501203027 46 244 1.0 4.0 0.00 0.00 0.00 45 1015.0
20260501201527 46 0 0.0 6.0 0.00 0.00 0.00 50 1015.0
20260501200030 45 12 1.0 5.0 0.00 0.00 0.00 50 1015.0
20260501194527 45 0 0.0 5.0 0.00 0.00 0.00 54 1015.0
20260501193033 46 21 1.0 4.0 0.00 0.00 0.00 51 1014.9
20260501191528 47 49 3.0 7.0 0.00 0.00 0.00 51 1014.8
20260501190028 45 325 1.0 3.0 0.00 0.00 0.00 49 1014.8
20260501184530 45 0 0.0 4.0 0.00 0.00 0.00 55 1014.8
20260501183028 45 340 1.0 3.0 0.00 0.00 0.00 53 1014.7
20260501181533 45 34 1.0 4.0 0.00 0.00 0.00 56 1014.8
20260501180035 44 30 1.0 5.0 0.00 0.00 0.00 55 1014.7
20260501174529 44 69 0.0 2.0 0.00 0.00 0.00 56 1014.9
20260501173036 44 18 3.0 5.0 0.00 0.00 0.00 54 1014.9
20260501171532 45 55 2.0 5.0 0.00 0.00 0.00 55 1015.0
20260501170030 44 329 2.0 4.0 0.00 0.00 0.00 56 1015.1
20260501164535 45 298 2.0 8.0 0.00 0.00 0.00 54 1015.2
20260501163031 45 57 4.0 9.0 0.00 0.00 0.00 55 1015.2
20260501161526 44 340 3.0 8.0 0.00 0.00 0.00 53 1015.1
20260501160043 44 306 2.0 7.0 0.00 0.00 0.00 51 1015.2
20260501154536 44 348 3.0 7.0 0.00 0.00 0.00 58 1015.2
20260501153030 44 5 2.0 9.0 0.00 0.00 0.00 60 1015.2
20260501151534 43 75 3.0 8.0 0.00 0.00 0.00 62 1015.4
20260501150027 42 335 2.0 11.0 0.00 0.00 0.00 63 1015.4
20260501144530 42 58 3.0 10.0 0.00 0.00 0.00 66 1015.4
20260501143029 42 10 2.0 10.0 0.00 0.00 0.00 68 1015.4